Location: Arbon
(43.0005°N, 0.7472°E)
Time: 04:43:57
(UTC+00:00)

Vanguard 2 Rocket - Pass Details

Date: 23 June 2021
Orbit: 554 x 3325 km, 32.9° (Epoch: 26 July)

Event Time Altitude Azimuth Distance (km) Brightness Sun altitude
Rises 22:29:21 0° 274° (W) 7,226 11.8 -20.4°
Reaches altitude 10° 22:34:49 10° 269° (W) 6,015 11.3 -20.8°
Maximum altitude 22:50:52 44° 207° (SSW) 2,978 9.1 -21.7°
Enters shadow 22:56:07 31° 161° (SSE) 3,044 8.9 -22.0°
